RH
56 66 70 75 76 73 70 68 67 68 68 68 67 60 59 59 53 52 55 52 41 30 19 11 10 10 9 10 12 13 15 17 17
45 62 68 75 79 80 74 76 73 75 77 75 74 72 69 61 61 60 57 54 55 53 44 34 21 11 9 9 10 11 12 14 16
31 54 62 75 79 79 75 72 84 78 73 76 79 79 74 75 77 68 64 62 60 58 57 55 49 35 18 11 9 10 11 14 15
19 21 24 33 37 54 69 66 67 81 75 79 77 81 87 80 80 80 78 75 69 65 64 62 60 56 47 32 16 10 10 12 14
21 19 19 20 20 21 20 48 35 48 70 78 77 84 93 92 89 85 79 74 77 77 72 68 77 64 61 54 42 26 13 11 12
26 26 24 21 20 19 19 24 20 21 49 70 72 79 86 95 93 90 91 88 77 72 76 77 75 76 70 66 60 48 34 19 12
14 19 23 25 26 26 25 24 23 23 22 29 34 41 70 82 82 79 85 82 76 79 80 73 80 76 75 73 69 66 55 42 26
11 11 11 11 11 11 13 15 17 18 19 22 23 23 23 24 30 35 51 55 47 49 56 80 73 68 74 75 76 73 71 61 50
11 9 9 9 9 8 8 8 8 8 8 7 7 7 8 8 10 11 16 19 25 37 54 59 66 70 79 74 81 83 83 76 67
12 10 10 10 9 10 10 10 10 10 10 10 10 10 10 10 10 10 9 9 9 12 21 48 65 69 71 68 79 84 84 84 83
15 12 11 10 10 11 11 12 12 12 12 12 12 12 12 12 12 12 12 13 12 11 10 15 20 53 69 74 75 80 87 86 88
19 17 15 13 12 12 12 13 13 13 12 11 12 14 16 16 17 18 18 18 17 16 14 11 12 14 42 72 80 81 79 84 87
26 23 19 17 17 16 15 14 14 14 17 19 18 19 19 18 18 20 22 22 22 23 24 21 15 12 20 43 71 81 84 85 90
28 30 28 23 18 17 16 18 19 23 18 20 18 14 10 11 14 16 19 23 25 26 27 27 28 22 14 15 44 75 88 84 100
37 33 30 31 27 22 22 24 24 19 20 19 16 10 16 17 18 23 26 28 27 27 27 29 29 29 29 25 14 27 66 88 88
22 28 33 34 33 32 27 22 18 19 18 16 13 10 14 12 12 16 21 23 24 25 26 27 27 30 31 30 29 28 18 22 64
16 17 19 23 25 25 16 16 16 20 19 18 12 11 11 10 10 11 14 19 21 21 21 20 20 21 22 25 31 29 30 30 20
16 13 11 10 9 10 13 14 18 18 18 14 12 11 11 11 11 10 12 14 16 18 21 22 19 13 12 15 20 30 34 32 34
12 12 10 7 7 9 10 10 17 18 15 11 11 12 12 11 12 11 11 12 12 12 16 21 24 23 23 21 21 32 41 41 37
7 9 9 8 7 8 7 8 11 12 11 12 12 12 12 11 9 11 13 12 11 11 13 17 23 23 23 24 26 27 27 37 47
Wind_Speed
20 20 18 19 17 17 16 15 14 14 12 12 11 9 8 6 4 4 4 3 3 3 4 4 5 6 6 8 8 8 7 7 6
22 22 22 21 19 19 18 18 17 16 15 15 15 13 11 9 8 6 6 6 5 5 4 4 5 5 6 7 8 9 9 8 8
23 23 24 23 21 21 21 21 20 19 18 17 17 17 16 13 11 10 9 9 8 8 7 7 7 7 7 8 8 9 9 9 9
24 25 26 29 30 28 25 25 25 22 21 21 21 20 19 18 17 15 13 12 12 12 11 11 10 9 8 9 9 10 10 10 10
28 27 27 27 28 30 31 31 29 29 26 23 24 24 22 21 21 21 19 18 17 15 15 14 14 13 12 11 11 11 11 11 11
32 31 30 30 30 29 29 29 28 28 30 30 28 27 26 25 25 26 27 27 24 22 20 19 18 17 16 15 14 14 13 13 12
34 34 33 33 32 31 31 30 29 28 28 29 31 32 31 31 32 33 32 31 29 29 26 25 22 21 21 20 19 17 16 15 15
34 34 33 33 32 31 31 31 31 31 30 29 30 31 32 33 33 31 31 32 31 29 27 28 25 25 24 24 23 21 19 19 18
33 33 33 32 30 30 29 29 28 29 29 28 29 30 31 32 33 33 33 34 32 30 29 29 28 28 27 27 26 25 24 23 22
34 33 32 30 30 29 28 27 27 27 28 29 30 30 32 33 33 34 34 35 35 34 33 31 31 31 31 30 29 29 27 26 25
31 32 31 28 27 27 27 26 26 27 28 29 30 30 31 32 34 35 35 37 38 37 37 37 36 34 34 33 32 32 31 30 28
26 27 27 27 26 26 26 26 26 26 27 27 27 27 27 29 31 33 34 35 37 39 39 39 40 39 39 37 36 34 34 32 32
26 24 24 24 25 25 24 25 24 23 23 22 23 24 25 28 30 33 36 37 37 38 39 40 41 42 43 41 38 41 37 35 35
20 21 22 21 21 23 23 22 21 21 22 21 19 21 25 28 32 34 35 37 38 38 38 40 40 41 44 46 47 45 42 42 39
15 15 18 20 21 21 21 20 21 20 21 18 21 23 23 24 27 29 30 32 34 36 38 38 40 40 41 44 48 51 50 48 46
14 14 15 17 20 20 19 19 20 22 18 18 19 20 18 21 22 21 22 25 28 31 33 35 38 41 43 45 45 47 50 52 52
14 14 15 16 18 19 19 19 19 22 20 20 19 20 20 22 20 19 17 17 19 22 25 29 33 36 39 41 44 47 47 48 51
17 14 15 16 17 18 17 18 18 20 21 21 20 20 19 18 18 18 16 15 15 17 18 21 24 26 29 32 37 41 45 46 46
19 16 15 16 17 17 18 20 20 21 21 22 21 19 18 17 15 15 17 16 17 17 18 20 21 23 25 27 31 34 38 41 43
20 19 18 18 17 18 19 20 21 22 22 22 21 20 20 19 18 12 18 19 19 20 19 20 21 23 24 26 28 29 31 34 36
Wind_Direction
270 273 272 272 271 270 271 273 278 283 288 291 288 286 287 287 285 293 309 329 345 353 354 327 311 303 292 290 287 284 279 278 282
260 263 266 267 268 267 270 271 270 272 277 279 280 281 282 281 278 276 282 289 295 303 312 311 314 307 296 289 284 284 284 281 284
265 262 261 262 262 264 264 266 265 266 266 269 274 275 276 272 269 265 268 270 273 278 283 291 299 305 302 294 288 282 279 276 277
265 261 261 259 257 258 260 258 257 259 262 265 267 268 268 267 265 261 260 262 267 270 272 273 276 281 289 294 291 284 280 277 275
270 267 263 261 261 261 258 257 259 254 255 256 264 265 264 266 263 264 264 263 263 263 268 272 270 270 274 276 280 282 281 279 276
271 268 266 264 263 262 262 258 259 258 252 254 257 260 260 262 265 269 272 273 272 271 269 266 267 269 268 270 272 275 275 275 276
273 270 266 264 264 264 264 263 263 262 259 258 259 259 259 260 262 263 266 272 276 278 274 272 269 265 265 265 265 266 270 269 269
273 272 269 267 265 264 264 265 265 265 262 260 261 262 263 264 265 265 263 267 270 267 270 268 265 262 261 260 260 261 262 266 267
269 268 270 269 268 266 264 264 264 266 267 266 266 265 265 267 269 270 270 269 267 262 259 262 262 262 260 260 256 256 256 260 263
273 268 267 268 269 269 268 267 267 267 267 268 267 267 269 270 270 269 269 269 268 267 262 257 255 258 258 258 256 255 254 254 258
270 268 266 265 266 268 270 269 270 271 270 271 272 271 270 270 271 271 268 267 266 264 262 260 256 254 255 254 254 253 252 252 253
266 265 264 262 263 264 268 270 271 270 271 271 273 275 276 277 276 274 272 269 267 265 262 259 258 254 251 253 254 254 255 255 255
275 265 260 264 267 267 267 269 270 270 269 270 274 279 280 279 279 276 274 270 267 265 264 261 257 255 253 249 253 253 253 253 253
273 271 265 258 262 267 266 265 262 262 267 273 276 282 285 285 283 281 278 274 270 267 264 263 261 257 253 251 249 251 251 249 255
276 269 269 266 257 258 261 258 259 258 265 266 281 285 292 294 292 288 283 275 273 271 269 267 264 263 261 257 253 252 252 253 250
282 275 268 269 266 260 257 258 257 262 265 274 286 285 288 300 299 300 292 284 281 278 274 270 267 264 261 259 260 258 256 255 254
284 285 279 273 269 263 258 252 259 263 270 282 285 287 287 291 295 299 302 296 292 288 284 279 275 270 266 263 260 259 258 257 256
287 281 280 277 272 268 261 258 259 265 270 277 283 285 285 286 292 298 302 300 299 297 295 295 291 285 278 271 265 262 260 258 257
294 287 283 281 276 269 268 264 262 269 273 277 278 280 283 282 284 290 293 294 297 301 304 302 298 294 289 282 274 268 265 262 259
296 288 283 279 272 269 269 268 267 271 273 274 278 281 282 279 279 274 289 294 296 299 301 300 295 292 290 287 283 279 273 268 264